[[{"header":{"parameterUnit":"m.s-1","parameterCategory":1,"la1":30.2991,"la2":30.254,"lo1":-89.0895,"lo2":-89.0444,"dy":0.0017,"dx":0.0017,"nx":28,"ny":28,"refTime":"2024-03-16T09:00:00:Z","depth":0,"parameterNumber":2,"parameterNumberName":"U-component_of_WINDS"},"data":[0,0,0,0,0,0,0,0,0,0,0,0,0,0,0,0,0,0,0,0,0,0,0,0,0,0,0,0,0,0,0,0,0,0,0,0,0,0,0,0,0,0,0,0,0,0,0,0,0,0,0,0,0,0,0,0,0,0,-1.9781,-1.9782,0,-1.9813,-1.9813,-1.9813,-1.974,-1.9738,-1.9736,-1.9734,-1.9765,-1.9768,-1.9771,0,0,0,0,0,0,0,0,0,0,0,0,0,-1.9658,-1.9661,-1.9781,-1.9782,-1.9782,-1.9812,-1.9813,-1.9813,-1.9741,-1.9738,-1.9735,-1.9733,-1.9764,-1.9768,-1.9771,0,0,0,0,0,0,0,0,0,0,0,0,0,-1.9703,-1.9662,-1.9781,-1.975,-1.9747,-1.9812,-1.9813,-1.9813,-1.9741,-1.9738,-1.9734,-1.9731,-1.9763,-1.9767,-1.9772,-1.9869,0,0,-1.9785,-1.9787,0,0,0,0,0,0,0,0,-1.9701,-1.9708,-1.9754,-1.9752,-1.9749,-1.9769,-1.9781,-1.9832,-1.9742,-1.9744,-1.9734,-1.973,-1.9769,-1.9773,-1.9786,-1.987,-1.9872,-1.9786,-1.9789,-1.979,-1.9792,0,0,0,0,0,0,0,-1.9698,-1.9706,-1.9794,-1.9755,-1.9752,-1.9734,-1.9736,-1.979,-1.9775,-1.9743,-1.9738,-1.9743,-1.9767,-1.9782,-1.9787,-1.9872,-1.9786,-1.979,-1.9792,-1.9794,-2.0038,-2.0042,0,0,0,0,0,0,-1.9699,-1.9704,-1.9793,-1.9795,-1.9716,-1.9739,-1.9741,-1.9766,-1.9775,-1.9773,-1.9746,-1.9739,-1.9776,-1.9781,-1.9787,-1.9903,-1.979,-1.9795,-1.9797,-2.0035,-2.0039,-2.0043,0,0,0,0,0,0,-1.9696,-1.9707,-1.9791,-1.9748,-1.9757,-1.9745,-1.9773,-1.9769,-1.9784,-1.9777,-1.9773,-1.9764,-1.9774,-1.9781,-1.9849,-1.9903,-1.9797,-1.9801,-2.003,-2.0036,-2.0041,-2.0134,0,0,0,0,0,0,-1.9693,-1.9707,-1.9744,-1.9749,-1.976,-1.9853,-1.9776,-1.9772,-1.9792,-1.9783,-1.9793,-1.9791,-1.9772,-1.9843,-1.9854,-1.9907,-1.9804,-2.0025,-2.0033,-2.0039,-2.0126,-2.0142,-2.0156,0,0,0,0,0,-1.9689,-1.9768,-1.9746,-1.9757,-1.9806,-1.9857,-1.9863,-1.9839,-1.9796,-1.9833,-1.9829,-1.9791,-1.9895,-1.9851,-1.9862,-1.9918,-2.0022,-2.0031,-2.0039,-2.0119,-2.0139,-2.0155,0,0,0,0,0,0,-1.9769,-1.9768,-1.9744,-1.9827,-1.9843,-1.9844,-1.989,-1.986,-1.9888,-1.9879,-1.9848,-1.9851,-1.9925,-1.9928,-1.9879,-2.0012,-1.9951,-1.9962,-2.0008,-2.0027,-2.0041,-2.004,-1.9808,0,0,0,0,0,-1.9797,-1.9838,-1.9835,-1.9909,-1.9918,-1.9903,-1.9924,-1.9905,-1.9919,-1.9925,-1.9926,-1.9941,-1.9977,-2.0002,-2.0035,-2.0125,-2.0127,-2.0169,-2.0184,-2.0196,-2.0207,-2.0256,-2.0275,-2.0071,-2.0071,-2.0071,0,0,-1.9854,-1.9858,-1.9887,-1.9925,-1.9935,-1.9979,-1.9909,-1.9958,-1.999,-1.9933,-1.9998,-1.9999,-2.0014,-2.0094,-2.0129,-2.0099,-2.0263,-2.0207,-2.0217,-2.0221,-2.0267,-2.0286,-2.0303,-2.0077,-2.0076,-2.0075,0,0,-1.9981,-1.9988,-2.0051,-2.0062,-2.0078,-2.0067,-2.0083,-2.0089,-2.0087,-2.0152,-2.011,-2.0147,-2.021,-2.0223,-2.0238,-2.037,-2.0336,-2.0381,-2.046,-2.0508,-2.0524,-2.0538,-2.0586,-2.0604,-2.0392,-2.0392,-2.0392,0,-2.005,-2.0115,-2.0087,-2.014,-2.0159,-2.0108,-2.0172,-2.0184,-2.0209,-2.0223,-2.0188,-2.0267,-2.0273,-2.0356,-2.0389,-2.0402,-2.0418,-2.0381,-2.0524,-2.0538,-2.055,-2.0596,-2.0614,-2.0397,-2.0397,-2.0396,-2.0396,0,-2.0199,-2.0245,-2.0294,-2.0321,-2.0344,-2.0402,-2.0384,-2.0411,-2.0389,-2.0383,-2.0449,-2.0455,-2.0489,-2.0507,-2.0486,-2.0587,-2.0568,-2.0529,-2.0467,-2.0576,-2.0618,-2.0635,-2.0405,-2.0403,-2.0402,-2.04,0,0,-2.0379,-2.039,-2.0408,-2.042,-2.0434,-2.0468,-2.0524,-2.0557,-2.0581,-2.06,-2.0647,-2.0701,-2.0665,-2.0682,-2.0662,-2.0704,-2.081,-2.066,-2.0659,-2.0688,-2.0923,-2.0954,-2.0974,-2.0787,-2.079,-2.0792,-2.0922,0,-2.0505,-2.0602,-2.0579,-2.0674,-2.0716,-2.0669,-2.0717,-2.0731,-2.0726,-2.0761,-2.0754,-2.0794,-2.0743,-2.0753,-2.0793,-2.0789,-2.0857,-2.0778,-2.083,-2.0832,-2.083,-2.0996,-2.1028,-2.1151,-2.0939,-2.0941,-2.0943,0,-2.0666,-2.0692,-2.0792,-2.0799,-2.0816,-2.086,-2.0889,-2.0923,-2.0937,-2.0931,-2.095,-2.0921,-2.0976,-2.0913,-2.0988,-2.0936,-2.0955,-2.0957,-2.0961,-2.0966,-2.0896,-2.1007,-2.1189,-2.1208,-2.0969,-2.0967,-2.0965,0,-2.0789,-2.0848,-2.0916,-2.0928,-2.0937,-2.097,-2.0975,-2.0986,-2.1008,-2.1033,-2.1047,-2.1077,-2.1095,-2.1119,-2.11,-2.1055,-2.1179,-2.1114,-2.1176,-2.1177,-2.1205,-2.1204,-2.1394,-2.1216,-2.1215,-2.1215,-2.1215,0,-2.0933,-2.0997,-2.0972,-2.1014,-2.1083,-2.1056,-2.1125,-2.1125,-2.1135,-2.1176,-2.1136,-2.1175,-2.1147,-2.1184,-2.1168,-2.1234,-2.1242,-2.1238,-2.1234,-2.1243,-2.1244,-2.1256,-2.1248,-2.122,-2.1219,-2.1218,-2.1217,0,-2.1083,-2.1068,-2.1139,-2.1143,-2.1145,-2.1197,-2.12,-2.1238,-2.123,-2.1283,-2.1293,-2.1281,-2.1322,-2.1305,-2.1348,-2.1338,-2.1422,-2.1406,-2.1418,-2.1414,-2.1478,-2.1473,-2.1684,-2.1711,-2.1514,-2.1516,-2.1517,0,-2.1177,-2.1225,-2.1234,-2.1259,-2.1267,-2.1307,-2.133,-2.1304,-2.1329,-2.1349,-2.1386,-2.1423,-2.1452,-2.152,-2.1515,-2.1548,-2.1533,-2.1605,-2.1538,-2.1545,-2.1536,-2.1534,-2.1539,-2.1619,-2.1621,-2.1623,-2.1624,0,-2.1346,-2.1337,-2.137,-2.1402,-2.143,-2.1453,-2.1473,-2.1496,-2.1471,-2.1501,-2.1543,-2.1565,-2.161,-2.1648,-2.1677,-2.1682,-2.165,-2.1645,-2.1662,-2.1672,-2.1678,-2.1677,-2.1456,-2.1641,-2.1639,-2.1638,-2.1637,-2.1636,-2.1471,-2.1512,-2.1525,-2.1564,-2.1577,-2.1596,-2.1633,-2.163,-2.1665,-2.17,-2.1682,-2.1731,-2.1744,-2.178,-2.179,-2.1828,-2.1799,-2.1823,-2.1829,-2.1836,-2.1845,-2.1671,-2.1833,-2.1832,-2.1832,-2.1831,-2.1831,0,-2.164,-2.1646,-2.1682,-2.1712,-2.1743,-2.1709,-2.1729,-2.1757,-2.1801,-2.1816,-2.1846,-2.1894,-2.1931,-2.1929,-2.1963,-2.1994,-2.198,-2.2003,-2.2002,-2.2004,-2.1867,-2.185,-2.2014,-2.2014,-2.2014,-2.2014,-2.2014,-2.2014,-2.1731,-2.1798,-2.1791,-2.1864,-2.1869,-2.1918,-2.1932,-2.195,-2.1962,-2.2018,-2.2049,-2.2047,-2.2055,-2.209,-2.2122,-2.212,-2.2135,-2.2165,-2.2158,-2.2031,-2.2013,-2.1996,-2.198,-2.2168,-2.2169,-2.2291,-2.2293,-2.2294]},{"header":{"parameterUnit":"m.s-1","parameterCategory":1,"la1":30.2991,"la2":30.254,"lo1":-89.0895,"lo2":-89.0444,"dy":0.0017,"dx":0.0017,"nx":28,"ny":28,"refTime":"2024-03-16T09:00:00:Z","depth":0,"parameterNumber":3,"parameterNumberName":"V-component_of_WINDS"},"data":[0,0,0,0,0,0,0,0,0,0,0,0,0,0,0,0,0,0,0,0,0,0,0,0,0,0,0,0,0,0,0,0,0,0,0,0,0,0,0,0,0,0,0,0,0,0,0,0,0,0,0,0,0,0,0,0,0,0,-5.2399,-5.2399,0,-5.2414,-5.2414,-5.2415,-5.2333,-5.2331,-5.2329,-5.2326,-5.234,-5.2342,-5.2345,0,0,0,0,0,0,0,0,0,0,0,0,0,-5.2296,-5.2298,-5.2399,-5.2399,-5.2399,-5.2414,-5.2414,-5.2415,-5.2334,-5.2331,-5.2328,-5.2325,-5.2339,-5.2342,-5.2345,0,0,0,0,0,0,0,0,0,0,0,0,0,-5.2329,-5.2299,-5.2399,-5.2361,-5.2357,-5.2414,-5.2414,-5.2415,-5.2334,-5.2331,-5.2327,-5.2324,-5.2338,-5.2342,-5.2345,-5.2439,0,0,-5.2357,-5.2359,0,0,0,0,0,0,0,0,-5.2327,-5.2333,-5.2366,-5.2363,-5.236,-5.2368,-5.2383,-5.2423,-5.2335,-5.2343,-5.2326,-5.2322,-5.2352,-5.2354,-5.2365,-5.2439,-5.244,-5.2357,-5.236,-5.2361,-5.2362,0,0,0,0,0,0,0,-5.2325,-5.2332,-5.2405,-5.2367,-5.2363,-5.2342,-5.2343,-5.239,-5.2367,-5.2342,-5.2336,-5.2339,-5.235,-5.2361,-5.2365,-5.244,-5.2357,-5.2361,-5.2363,-5.2364,-5.2591,-5.2594,0,0,0,0,0,0,-5.2328,-5.233,-5.2404,-5.2405,-5.2335,-5.2346,-5.2347,-5.2369,-5.2366,-5.2362,-5.2342,-5.2335,-5.2357,-5.236,-5.2365,-5.2473,-5.2361,-5.2365,-5.2367,-5.2587,-5.2592,-5.2596,0,0,0,0,0,0,-5.2326,-5.2335,-5.2404,-5.2366,-5.2373,-5.2352,-5.2377,-5.2371,-5.2383,-5.2366,-5.2361,-5.2359,-5.2354,-5.2359,-5.2421,-5.2472,-5.2366,-5.237,-5.2583,-5.2589,-5.2594,-5.2691,0,0,0,0,0,0,-5.2324,-5.2335,-5.2371,-5.2368,-5.2376,-5.2461,-5.238,-5.2374,-5.239,-5.2381,-5.2381,-5.2377,-5.2352,-5.2416,-5.2425,-5.2476,-5.2373,-5.2578,-5.2585,-5.2592,-5.2683,-5.27,-5.2714,0,0,0,0,0,-5.232,-5.2398,-5.2374,-5.2383,-5.242,-5.2464,-5.2468,-5.2438,-5.2395,-5.243,-5.2419,-5.2377,-5.2466,-5.2423,-5.2432,-5.2485,-5.2575,-5.2583,-5.2591,-5.2677,-5.2696,-5.2713,0,0,0,0,0,0,-5.2407,-5.2397,-5.237,-5.2448,-5.2458,-5.245,-5.2494,-5.246,-5.2481,-5.2472,-5.2433,-5.2434,-5.2502,-5.2499,-5.2452,-5.2575,-5.2512,-5.2523,-5.2574,-5.2593,-5.2607,-5.2606,-5.2376,0,0,0,0,0,-5.2436,-5.2473,-5.2461,-5.2532,-5.2538,-5.2516,-5.2533,-5.251,-5.2517,-5.252,-5.2514,-5.2522,-5.2552,-5.2572,-5.2598,-5.2683,-5.2681,-5.2724,-5.2739,-5.2751,-5.2761,-5.2805,-5.2823,-5.2623,-5.2623,-5.2623,0,0,-5.2494,-5.2493,-5.2519,-5.2549,-5.2554,-5.2592,-5.2519,-5.2563,-5.2591,-5.2527,-5.2584,-5.258,-5.2587,-5.266,-5.2692,-5.266,-5.2816,-5.2762,-5.2772,-5.2775,-5.2815,-5.2834,-5.2851,-5.2629,-5.2628,-5.2627,0,0,-5.2621,-5.2625,-5.2684,-5.269,-5.2698,-5.2682,-5.2697,-5.2694,-5.2689,-5.2747,-5.2699,-5.2731,-5.2783,-5.279,-5.28,-5.2929,-5.2891,-5.2939,-5.3017,-5.306,-5.3076,-5.309,-5.3135,-5.3152,-5.2949,-5.2949,-5.2949,0,-5.2693,-5.275,-5.2718,-5.2765,-5.2779,-5.2724,-5.2783,-5.279,-5.2806,-5.2816,-5.2781,-5.2845,-5.2845,-5.2919,-5.2951,-5.2961,-5.2975,-5.2938,-5.3077,-5.309,-5.3102,-5.3145,-5.3163,-5.2954,-5.2954,-5.2953,-5.2953,0,-5.2838,-5.2878,-5.2925,-5.2942,-5.2962,-5.3015,-5.2989,-5.3013,-5.2987,-5.2975,-5.3034,-5.3033,-5.3058,-5.3074,-5.3049,-5.3144,-5.3124,-5.3084,-5.302,-5.3128,-5.3167,-5.3184,-5.2963,-5.2961,-5.2959,-5.2958,0,0,-5.302,-5.3019,-5.3037,-5.3044,-5.3048,-5.3078,-5.3128,-5.3153,-5.3174,-5.3187,-5.3227,-5.3272,-5.3234,-5.3246,-5.3222,-5.326,-5.3362,-5.3214,-5.3213,-5.3241,-5.3465,-5.3496,-5.3515,-5.3337,-5.334,-5.3342,-5.3465,0,-5.3144,-5.323,-5.3202,-5.3289,-5.3325,-5.3273,-5.3316,-5.3323,-5.3313,-5.3342,-5.333,-5.3363,-5.3311,-5.3317,-5.3353,-5.3342,-5.3406,-5.3333,-5.3373,-5.3375,-5.3372,-5.3536,-5.3568,-5.3684,-5.348,-5.3483,-5.3485,0,-5.3299,-5.3319,-5.341,-5.3408,-5.3422,-5.3462,-5.3482,-5.3511,-5.3517,-5.3507,-5.3521,-5.3488,-5.3536,-5.3473,-5.3537,-5.3488,-5.3503,-5.35,-5.3504,-5.3506,-5.3436,-5.3542,-5.3721,-5.3738,-5.3509,-5.3507,-5.3505,0,-5.3422,-5.3472,-5.3532,-5.354,-5.3539,-5.3568,-5.3569,-5.3572,-5.3589,-5.3607,-5.3617,-5.364,-5.3653,-5.3671,-5.3645,-5.3601,-5.3713,-5.3648,-5.3706,-5.3706,-5.3731,-5.373,-5.3914,-5.3742,-5.3742,-5.3741,-5.3741,0,-5.3563,-5.362,-5.3587,-5.3624,-5.3687,-5.3654,-5.3716,-5.3711,-5.3714,-5.3749,-5.3705,-5.3738,-5.3702,-5.3732,-5.3712,-5.3768,-5.3774,-5.3767,-5.3761,-5.3771,-5.3771,-5.3779,-5.377,-5.3746,-5.3745,-5.3744,-5.3743,0,-5.3711,-5.3691,-5.3753,-5.3748,-5.3748,-5.3794,-5.3789,-5.3822,-5.3809,-5.3854,-5.3862,-5.3841,-5.3874,-5.385,-5.3882,-5.3869,-5.3943,-5.3926,-5.3941,-5.3936,-5.3995,-5.3989,-5.419,-5.4214,-5.4027,-5.4029,-5.4031,0,-5.3802,-5.3844,-5.3844,-5.3864,-5.3868,-5.3902,-5.3919,-5.3888,-5.3907,-5.3918,-5.395,-5.3979,-5.4,-5.4055,-5.4042,-5.4066,-5.4049,-5.4118,-5.4052,-5.4061,-5.4049,-5.4047,-5.4051,-5.4131,-5.4133,-5.4135,-5.4136,0,-5.3965,-5.3953,-5.398,-5.4003,-5.4025,-5.4042,-5.4055,-5.4074,-5.4042,-5.4066,-5.4099,-5.4116,-5.4149,-5.4178,-5.4198,-5.4197,-5.4162,-5.4157,-5.4171,-5.4181,-5.4188,-5.4185,-5.3976,-5.4152,-5.4151,-5.415,-5.4149,-5.4148,-5.4086,-5.4122,-5.4127,-5.4158,-5.4165,-5.4178,-5.4209,-5.4201,-5.4228,-5.4253,-5.4233,-5.4272,-5.4277,-5.43,-5.4304,-5.4334,-5.4306,-5.4327,-5.4332,-5.4338,-5.4346,-5.4184,-5.4337,-5.4337,-5.4337,-5.4336,-5.4336,0,-5.4246,-5.4247,-5.4276,-5.4296,-5.4321,-5.4286,-5.4298,-5.4321,-5.4356,-5.4364,-5.4386,-5.4424,-5.4452,-5.4442,-5.4467,-5.4492,-5.4477,-5.45,-5.4497,-5.4498,-5.437,-5.4355,-5.4512,-5.4512,-5.4512,-5.4512,-5.4512,-5.4512,-5.4333,-5.4391,-5.438,-5.444,-5.444,-5.4479,-5.4489,-5.4501,-5.4507,-5.4552,-5.4575,-5.4568,-5.4569,-5.4593,-5.4617,-5.4613,-5.4624,-5.4653,-5.4644,-5.4524,-5.4507,-5.449,-5.4476,-5.4656,-5.4656,-5.4769,-5.477,-5.477]}]]